Location: Fort Collins
(40.5850°N, 105.0840°W)
Time: 05:03:48
(UTC-06:00)

Daily predictions for brighter satellites

Satellite Brightness Start Highest point End
(mag) Time Altitude Azimuth Time Altitude Azimuth Time Altitude Azimuth
Cosmos 1455 3.3 00:05:57 10° NNW 00:09:00 38° WNW 00:09:00 38° WNW
Cosmos 1943 Rocket 3.4 00:11:43 26° E 00:11:43 26° E 00:15:43 10° NE
Cosmos 2074 Rocket 4.0 00:06:07 10° N 00:12:22 75° W 00:13:52 53° SSW
CZ-4B R/B 4.0 00:10:51 10° NNE 00:15:54 46° E 00:15:54 46° E
RESURS DK-1 4.2 00:17:46 21° W 00:19:15 26° WNW 00:22:47 10° N
Meteor 2-21 4.3 00:14:21 10° N 00:20:26 87° W 00:21:33 62° S
Terra 4.0 00:20:16 14° WSW 00:21:17 15° W 00:23:53 10° WNW
BREEZE M DEB (TANK) 4.3 00:02:53 10° WSW 00:24:07 79° NNW 00:28:56 10° NE
Cosmos 332 Rocket 3.7 00:19:18 10° NNW 00:24:14 76° ENE 00:24:21 75° E
DELTA 2 DEB (DPAF) 4.2 00:24:33 70° NE 00:24:33 70° NE 00:28:49 10° N
Cosmos 1140 Rocket 3.3 00:35:08 85° S 00:35:18 89° E 00:40:27 10° NNE
Cosmos 614 Rocket 3.8 00:36:47 79° SW 00:37:03 84° WNW 00:42:13 10° NNE
COSMOS 2487 3.9 00:34:08 10° NNW 00:36:24 37° N 00:36:24 37° N
Cosmos 2228 Rocket 3.5 00:33:45 10° NNW 00:37:44 54° WNW 00:37:44 54° WNW
Cosmos 1743 Rocket 4.2 00:39:41 47° WNW 00:39:41 47° WNW 00:43:52 10° N
ADEOS Rocket 3.1 00:37:52 10° N 00:43:56 79° WNW 00:45:35 53° SSW
CZ-4C R/B 4.0 00:45:33 51° NNW 00:45:33 51° NNW 00:48:29 10° NNW
Sich 1 4.2 00:48:00 35° ENE 00:48:00 35° ENE 00:51:26 10° NNE
Cosmos 1805 Rocket 4.1 00:48:34 51° ENE 00:48:34 51° ENE 00:52:16 10° NNE
Meteor 2-10 Rocket 3.8 00:45:30 10° NNW 00:50:34 56° W 00:50:48 55° WSW
Cosmos 1954 Rocket 4.0 00:51:26 63° W 00:51:53 66° WNW 00:57:03 10° NNE
CENTAUR R/B 3.7 00:45:20 10° NW 00:52:48 40° WSW 00:54:32 37° SW
Cosmos 676 Rocket 4.4 00:53:52 49° W 00:54:36 54° WNW 00:59:42 10° N
Meteor 2-16 Rocket 4.5 00:52:00 10° NNW 00:58:06 67° W 00:59:03 58° SW
Cosmos 2154 Rocket 4.2 00:53:08 10° NNW 00:59:21 58° W 01:00:29 51° SW
Cosmos 2181 Rocket 3.9 01:03:43 63° S 01:04:49 87° E 01:11:06 10° N
USA 234 3.3 01:01:38 10° NE 01:08:05 58° SE 01:08:49 55° SSE
Lacrosse 4 Rocket 3.4 01:11:44 21° E 01:11:44 21° E 01:14:07 10° NE
Cosmos 1933 4.0 01:07:29 10° N 01:10:44 51° NNE 01:10:44 51° NNE
Cosmos 1633 Rocket 3.7 01:13:27 49° ENE 01:13:27 49° ENE 01:17:16 10° NNE
Cosmos 1707 Rocket 3.8 01:08:54 10° N 01:12:49 63° NE 01:12:49 63° NE
Cosmos 1295 Rocket 4.5 01:07:28 10° NNW 01:13:40 68° W 01:14:42 58° SW
Cosmos 304 Rocket 3.7 01:10:29 10° NNW 01:15:09 80° NE 01:15:09 80° NE
Cosmos 2341 Rocket 4.1 01:10:04 10° NNW 01:16:22 65° W 01:17:29 56° SW
Cosmos 2369 Rocket 2.4 01:18:27 53° WSW 01:19:29 62° WNW 01:25:06 10° NNE
ALOS 2 4.2 01:21:19 25° WNW 01:21:19 25° WNW 01:24:16 10° NW
Mayak 0.6 01:17:59 10° NNW 01:21:12 22° WNW 01:21:27 22° WNW
SL-8 Rocket 3.9 01:15:02 10° N 01:21:21 89° WNW 01:22:32 62° S
Cosmos 2218 Rocket 3.9 01:18:04 10° N 01:24:16 80° E 01:25:29 60° SSE
MOS 1 Rocket 3.3 01:26:50 10° NNE 01:31:35 73° E 01:31:35 73° E
Cosmos 1825 3.6 01:33:34 33° ENE 01:33:34 33° ENE 01:36:14 10° NNE
Cosmos 1656 Rocket 3.9 01:32:34 52° ESE 01:32:58 53° ESE 01:38:27 10° NNE
Cosmos 1570 Rocket 3.9 01:27:48 10° NNW 01:33:06 82° ENE 01:33:32 74° SE
H-2A R/B 3.6 01:37:33 24° WNW 01:37:33 24° WNW 01:39:57 10° NW
Meteor 2-3 Rocket 3.7 01:36:12 64° SSE 01:37:00 75° E 01:42:49 10° NNE
Cosmos 1850 Rocket 4.2 01:37:43 54° W 01:38:17 58° WNW 01:43:29 10° NNE
Cosmos 1666 Rocket 3.9 01:40:01 59° NW 01:40:01 59° NW 01:43:53 10° N
Cosmos 1606 3.9 01:39:18 10° N 01:42:33 38° ENE 01:42:33 38° ENE
Cosmos 1933 Rocket 4.1 01:45:10 47° E 01:45:10 47° E 01:49:12 10° NNE
Cosmos 1763 Rocket 4.1 01:41:40 10° N 01:46:35 49° ENE 01:47:57 38° ESE
Cosmos 2366 rocket 3.9 01:43:51 10° NNW 01:49:59 71° W 01:51:05 58° SSW
CZ-4B R/B 3.5 01:52:53 22° ENE 01:52:53 22° ENE 01:54:54 10° NNE
Cosmos 1943 Rocket 3.0 01:53:13 35° W 01:54:39 42° WNW 01:59:57 10° N
CZ-2D R/B 4.0 01:52:07 10° NE 01:55:48 19° E 01:57:40 16° ESE
Nadezhda 3 Rocket 4.1 02:00:47 48° SSE 02:02:34 71° E 02:08:52 10° NNE
SL-16 R/B 3.7 02:06:35 13° SE 02:11:25 37° ENE 02:16:59 10° N
Resurs 1-4 Rocket 3.6 02:09:42 10° NE 02:14:14 28° E 02:16:05 23° SE
Cosmos 1814 Rocket 4.0 02:09:02 10° NNW 02:14:21 80° ENE 02:15:36 53° SSE
PSLV R/B 4.1 02:09:57 10° N 02:14:35 54° WNW 02:15:02 52° W
Cosmos 1833 4.2 02:11:08 10° NNW 02:16:36 58° WSW 02:17:07 55° SW
Cosmos 405 4.4 02:18:57 31° NW 02:18:57 31° NW 02:21:27 10° N
GP-B 3.1 02:15:19 10° N 02:19:46 72° E 02:20:09 67° SE
Cosmos 841 Rocket 3.7 02:14:40 10° NNW 02:19:53 68° ENE 02:21:35 41° SE
Cosmos 2242 Rocket 4.0 02:22:09 10° NNW 02:26:15 48° W 02:26:15 48° W
SL-8 R/B 4.0 02:22:17 10° WNW 02:27:07 68° NNE 02:31:54 10° ESE
H-2A R/B 3.9 02:27:04 10° NE 02:30:22 25° E 02:30:59 24° ESE
CZ-4C R/B 4.3 02:32:05 34° WNW 02:32:05 34° WNW 02:34:38 10° NNW
Cosmos 1437 Rocket 3.6 02:31:12 41° ESE 02:31:42 43° E 02:35:36 10° NNE
Meteor 2-6 Rocket 4.0 02:29:33 10° N 02:34:58 90° ENE 02:36:39 46° S
Okean 1-7 3.6 02:32:41 10° N 02:37:00 52° E 02:38:20 37° SE
Landsat 5 3.5 02:38:57 54° WNW 02:38:57 54° WNW 02:42:21 10° NNW
Cosmos 2219 3.7 02:33:48 10° NNW 02:39:23 58° ENE 02:43:53 16° SE
Cosmos 1867 3.9 02:37:59 40° WSW 02:39:40 57° NW 02:45:04 10° NNE
UNK 4.5 02:37:42 27° SE 02:39:56 50° ENE 02:44:26 10° N
Cosmos 1862 Rocket 4.4 02:36:12 10° NNW 02:40:10 36° W 02:40:10 36° W
BREEZE-M DEB (TANK) 3.0 02:40:19 42° NNE 02:40:34 44° NNE 02:44:15 10° ESE
Cosmos 1703 Rocket 3.5 02:37:39 10° N 02:42:04 83° E 02:42:50 60° SSE
COSMOS 2455 2.8 02:38:11 10° NNW 02:44:14 89° WSW 02:47:54 25° SSE
USA 229 DEB 4.1 02:39:32 10° NNW 02:46:45 71° NE 02:54:09 10° SE
USA 229 4.1 02:39:39 10° NNW 02:46:52 71° NE 02:54:16 10° SE
Lacrosse 4 Rocket 2.7 02:48:03 29° W 02:49:05 33° NW 02:53:09 10° N
Cosmos 1821 Rocket 4.0 02:42:57 10° NNW 02:49:15 70° W 02:51:47 38° SSW
USA 234 4.1 02:44:47 10° NE 02:50:58 46° NNW 02:56:09 15° W
Cosmos 1818 4.3 02:47:12 10° NW 02:51:57 34° WSW 02:51:57 34° WSW
Cosmos 1782 3.8 02:49:57 10° NNW 02:53:09 33° WNW 02:53:09 33° WNW
SL-24 DEB 4.2 02:52:20 46° SSE 02:53:44 83° E 02:58:21 10° N
AQUA 3.9 02:49:47 10° NNE 02:54:33 72° ESE 02:56:03 43° S
IRS-1D 4.0 02:50:51 10° NNE 02:55:49 51° E 02:57:58 30° SSE
Cosmos 2297 Rocket 3.7 02:55:56 10° N 03:01:06 35° ENE 03:06:14 10° SE
ATLAS CENTAUR R/B 1.6 03:00:46 44° SE 03:01:12 46° ESE 03:05:01 10° NE
Cosmos 1354 Rocket 4.0 03:01:35 40° S 03:03:29 77° ESE 03:08:44 10° NNE
Cosmos 1486 Rocket 4.4 03:02:23 37° WSW 03:04:09 53° WNW 03:09:23 10° N
Cosmos 44 3.2 03:04:22 46° SW 03:05:45 78° WNW 03:10:44 10° NNE
Cosmos 1733 Rocket 4.5 03:04:00 19° SE 03:06:22 32° E 03:10:15 10° NNE
Meteor 1-27 Rocket 3.7 03:01:14 10° NNW 03:07:06 81° W 03:10:17 29° S
Lacrosse 5 3.9 03:04:01 10° NNW 03:08:27 30° NNE 03:12:53 10° E
Cosmos 1825 4.5 03:08:25 13° WNW 03:08:27 13° WNW 03:10:18 10° NW
Cosmos 44 Rocket 3.4 03:07:57 41° S 03:09:33 69° ESE 03:14:32 10° NE
Cosmos 2227 Rocket 3.3 03:04:43 10° NNW 03:10:10 45° ENE 03:15:34 10° SE
Cosmos 968 Rocket 4.1 03:08:36 27° SSE 03:11:12 50° ESE 03:16:17 10° NNE
Cosmos 967 Rocket 4.5 03:09:02 34° SW 03:12:08 84° WNW 03:18:39 10° NNE
IRS-1C 4.1 03:09:23 10° NNE 03:14:46 89° ESE 03:17:17 33° SSW
ADEOS II 3.9 03:13:59 10° NE 03:18:13 24° E 03:22:26 10° SSE
Cosmos 1656 4.4 03:16:23 22° SSE 03:19:41 47° ESE 03:25:05 10° NE
Meteor 1-4 Rocket 2.6 03:20:24 52° SW 03:21:03 65° W 03:24:45 10° N
Cosmos 374 Rocket 4.4 03:18:20 10° NW 03:23:07 84° WSW 03:26:34 13° SSE
Cosmos 1689 Rocket 4.5 03:25:19 14° WNW 03:25:19 14° WNW 03:26:11 10° NW
CZ-4B R/B 3.7 03:26:18 11° WNW 03:26:18 11° WNW 03:26:41 10° WNW
BREEZE-M DEB (TANK) 4.2 03:21:40 10° WNW 03:28:21 45° N 03:31:22 10° ENE
Cosmos 389 Rocket 2.9 03:27:14 33° SSE 03:28:40 60° E 03:32:15 10° NNE
Cosmos 1503 Rocket 4.2 03:28:49 31° SW 03:31:08 57° WNW 03:36:15 10° NNE
Cosmos 1184 Rocket 3.5 03:28:31 10° NNW 03:31:30 36° W 03:31:30 36° W
Helios 1A Rocket 4.2 03:29:21 10° NNE 03:33:02 34° E 03:35:57 15° SSE
NPP 4.4 03:30:25 10° N 03:35:25 40° WNW 03:38:02 24° WSW
Cosmos 540 Rocket 3.9 03:30:48 10° NW 03:35:34 40° WSW 03:37:32 28° SSW
CZ-2D R/B 2.4 03:30:59 10° N 03:36:10 54° WNW 03:38:59 26° SW
Delta 2 Rocket 3.9 03:35:55 34° SSW 03:36:19 35° S 03:40:29 10° SE
GPS 2-04 Rocket1 3.3 03:35:41 35° SSW 03:36:33 40° S 03:40:25 10° ESE
UNKNOWN OBJECT B 3.6 03:36:05 10° NNE 03:40:00 49° E 03:42:47 18° S
ARIANE 5 R/B 2.4 03:35:24 10° NNE 03:40:25 83° WNW 03:43:27 24° SSW
Cosmos 1605 Rocket 4.2 03:39:44 10° NNW 03:45:37 52° W 03:49:43 20° SSW
Cosmos 2082 4.1 03:41:52 10° NNW 03:47:31 67° ENE 03:53:05 10° SSE
SAR-Lupe-2 4.1 03:44:46 10° SSE 03:48:16 58° ENE 03:51:48 10° N
Cosmos 1459 Rocket 4.4 03:44:52 10° N 03:51:14 67° E 03:57:31 10° SSE
Resurs 1-4 Rocket 2.9 03:49:14 10° N 03:54:05 37° WNW 03:57:09 20° WSW
SL-16 R/B 3.2 03:51:41 21° SSW 03:55:00 35° W 04:00:34 10° NNW
MOZ.5/SAFIR/RUBIN 5/SL-8 4.3 03:53:43 22° SSW 03:56:12 40° W 04:00:36 10° NNW
Cosmos 1812 3.0 03:54:56 10° NNW 03:58:42 49° W 04:00:56 22° SSW
Cosmos 1697 Rocket 3.0 03:55:20 16° S 03:59:54 65° ESE 04:05:31 10° NNE
Cosmos 2100 Rocket 4.0 03:54:20 10° N 04:00:34 84° E 04:06:49 10° S
NOSS 3-1 (C) 4.1 03:53:21 10° NW 04:01:01 70° WSW 04:09:30 10° SSE
SL-08 R/B 4.5 03:59:48 21° SW 04:01:24 25° W 04:05:15 10° NW
PSLV R/B 4.5 04:00:02 21° SSW 04:02:24 40° W 04:06:23 10° NNW
Okean 3 3.4 03:59:55 10° N 04:04:08 89° W 04:08:21 10° S
H-2A R/B 3.9 04:02:43 10° NNW 04:05:46 22° WNW 04:07:35 16° WSW
Lacrosse 5 rocket 3.4 04:05:32 10° S 04:08:53 22° ESE 04:12:21 10° ENE
SL-8 R/B 4.5 04:05:15 10° WNW 04:09:24 29° SW 04:13:31 10° SSE
Cosmos 1633 3.4 04:08:52 21° SW 04:10:36 33° WNW 04:13:57 10° N
Meteor 1-14 Rocket 4.3 04:08:13 15° SSW 04:13:04 69° WNW 04:18:54 10° N
Meteor 1-18 Rocket 4.2 04:07:36 10° N 04:13:16 85° W 04:18:49 10° S
Meteor 1-25 Rocket 4.2 04:08:51 15° SSW 04:13:31 69° WNW 04:19:04 10° N
Sich 1 Rocket 4.1 04:16:28 10° S 04:20:50 61° E 04:25:12 10° NNE
Meteor 2-12 Rocket 4.5 04:16:02 10° NNW 04:22:07 67° W 04:28:07 10° S
ATLAS 2A CENTAUR R/B 4.0 04:14:21 11° WSW 04:25:30 33° S 04:31:35 10° SE
Cosmos 2369 4.1 04:21:03 15° SW 04:25:38 52° WNW 04:31:11 10° NNE
Cosmos 2123 Rocket 4.3 04:20:35 10° S 04:26:43 72° E 04:32:53 10° NNE
Milstar 3 Cent rocket 4.3 04:10:36 10° WSW 04:27:25 46° S 04:35:33 10° ESE
Cosmos 1980 Rocket 2.6 04:22:12 10° S 04:27:42 62° ESE 04:33:16 10° NNE
ADEOS 3.8 04:24:41 10° N 04:29:48 56° WNW 04:34:50 10° SSW
Cosmos 1378 Rocket 3.6 04:30:34 10° NNW 04:34:59 65° W 04:39:23 10° S
NOSS 3-1 (A) 4.2 04:30:58 10° NW 04:38:35 58° WSW 04:46:56 10° SSE
Cosmos 2173 Rocket 4.2 04:33:01 10° NNW 04:38:53 52° W 04:44:46 10° SSW
ATLAS CENTAUR R/B 3.3 04:37:50 10° W 04:40:28 17° NW 04:43:13 10° N
Cosmos 1782 Rocket 3.6 04:37:07 10° S 04:41:30 87° E 04:45:54 10° N
NOSS 2-1 (C) 3.9 04:39:28 10° SSW 04:42:57 48° ESE 04:46:39 10° NE
NOSS 2-1 (D) 3.8 04:40:46 10° SSW 04:44:17 51° ESE 04:48:01 10° NE
Cosmos 2297 Rocket 2.9 04:40:04 10° NW 04:45:03 33° WSW 04:50:00 10° SSW
Cosmos 1538 Rocket 4.1 04:40:06 10° NNW 04:45:26 66° WSW 04:50:43 10° S
Iridium 96 3.8 04:43:08 10° N 04:46:07 84° W 04:48:46 10° S
ASTEX 1 3.9 04:43:07 10° SSW 04:47:51 42° W 04:52:37 10° NNW
Shenzhou-11 Module 1.9 04:47:18 10° WSW 04:50:14 70° SSE 04:53:12 10° ENE
Meteor 2-4 Rocket 4.2 04:44:27 10° N 04:50:19 70° E 04:56:00 10° SSE
Meteor 1-11 Rocket 4.0 04:45:26 10° S 04:50:55 71° E 04:56:31 10° NNE
Lacrosse 5 1.9 04:46:43 10° NW 04:51:41 57° SW 04:56:38 10° SSE
ATLAS CENTAUR Rocket 3.7 04:48:18 10° SW 04:52:16 29° SSE 05:03:20 10° ESE
Cosmos 1271 Rocket 3.3 04:49:01 10° SSW 04:52:46 42° WNW 04:56:31 10° N
Cosmos 2227 Rocket 3.2 04:49:22 10° NW 04:53:54 25° WSW 04:58:25 10° SSW
Cosmos 1777 Rocket 4.3 04:49:54 10° SW 04:54:58 51° WNW 05:00:03 10° N
ADEOS II 2.7 04:53:09 10° N 04:58:03 41° WNW 05:02:56 10° SW
USA 102 4.2 04:55:41 10° S 04:58:20 37° WSW 05:02:15 10° NW
CZ-3 R/B 4.0 04:56:23 10° SW 05:14:02 28° S 05:20:35 10° ESE
